Location: Caltech
(34.1382°N, 118.1253°W)
Time: 22:21:21
(UTC-08:00)

Uosat F - Visible Passes

Search period start: 29 January 2015 00:00
Search period end: 08 February 2015 00:00
Orbit: 751 x 762 km, 98.7° (Epoch: 28 January)

Date Brightness Start Highest point End Pass type
(mag) Time Alt. Az. Time Alt. Az. Time Alt. Az.
29 Jan 11.4 04:32:19 10° NNE 04:36:25 59° NNE 04:36:25 59° NNE visible
30 Jan 12.8 03:53:36 10° NE 03:56:59 28° ENE 03:56:59 28° ENE visible
30 Jan 12.0 05:32:36 10° NNW 05:36:43 25° WNW 05:37:02 25° WNW visible
31 Jan 14.0 03:16:41 10° ENE 03:17:34 11° E 03:17:34 11° E visible
31 Jan 11.0 04:52:41 10° N 04:57:36 62° WNW 04:57:36 62° WNW visible
01 Feb 11.8 04:13:32 10° NNE 04:18:12 50° E 04:18:12 50° E visible
01 Feb 12.5 05:53:46 10° NNW 05:56:53 16° WNW 05:58:14 14° W visible
02 Feb 13.4 03:35:23 10° NE 03:38:48 20° E 03:38:48 20° E visible
02 Feb 11.5 05:13:14 10° N 05:17:55 38° WNW 05:18:50 35° W visible
03 Feb 11.0 04:33:43 10° NNE 04:38:47 83° ESE 04:39:28 67° S visible
04 Feb 12.7 03:54:58 10° NE 03:59:26 32° E 04:00:06 31° ESE visible
04 Feb 12.0 05:34:01 10° NNW 05:38:07 25° WNW 05:40:08 19° WSW visible
05 Feb 13.9 03:17:58 10° ENE 03:19:47 12° E 03:20:45 12° ESE visible
05 Feb 11.0 04:54:04 10° N 04:59:04 61° WNW 05:00:48 38° SW visible
06 Feb 11.8 04:14:55 10° NNE 04:19:50 52° E 04:21:29 37° SSE visible
06 Feb 12.5 05:55:12 10° NNW 05:58:16 16° WNW 06:01:06 10° W visible
07 Feb 13.4 03:36:44 10° NE 03:40:21 20° E 03:42:11 17° ESE visible
07 Feb 11.5 05:14:37 10° N 05:19:18 38° WNW 05:22:15 20° SW visible
